GW3250 Weather Reports


time (UTC)temp
C
wind
direction
speed
KPH
gust
KPH
rain 1hr
cm
rain 24hr
cm
rain mn
cm
humidity
%
barometer
mb
20260903181419 27 195 8.0 9.7 0.00 0.43 0.43 79 1012.1
20260903180918 27 121 1.6 3.2 0.00 0.43 0.43 83 1012.4
20260903180413 27 219 1.6 1.6 0.00 0.43 0.43 84 1012.2
20260903175913 27 233 1.6 1.6 0.00 0.43 0.43 82 1012.2
20260903175407 27 204 6.4 9.7 0.00 0.43 0.43 81 1012.4
20260903174901 27 198 1.6 3.2 0.00 0.43 0.43 85 1012.2
20260903174356 27 189 1.6 1.6 0.00 0.43 0.43 81 1012.4
20260903173850 26 214 3.2 3.2 0.00 0.43 0.43 84 1012.4
20260903173346 27 221 3.2 4.8 0.00 0.43 0.43 84 1012.6
20260903172842 26 237 4.8 4.8 0.00 0.43 0.43 86 1012.5
20260903172336 26 213 6.4 9.7 0.00 0.43 0.43 85 1012.1
20260903171832 26 177 4.8 4.8 0.00 0.43 0.43 81 1012.5
20260903171327 26 179 6.4 6.4 0.00 0.43 0.43 85 1012.6
20260903170826 26 203 0.0 1.6 0.00 0.43 0.43 86 1012.7
20260903170322 26 226 6.4 6.4 0.00 0.43 0.43 86 1012.7
20260903165820 26 206 1.6 3.2 0.00 0.43 0.43 86 1012.6
20260903165314 25 234 6.4 9.7 0.00 0.43 0.43 86 1012.6
20260903164814 25 208 3.2 3.2 0.00 0.43 0.43 88 1012.7
20260903164310 25 199 1.6 1.6 0.00 0.43 0.43 86 1012.7
20260903163809 25 186 1.6 1.6 0.00 0.43 0.43 88 1012.8
20260903163306 25 151 3.2 6.4 0.00 0.43 0.43 86 1013.0
20260903162801 25 196 3.2 4.8 0.00 0.43 0.43 90 1013.1
20260903162257 25 240 3.2 3.2 0.00 0.43 0.43 88 1012.8
20260903161753 25 105 1.6 3.2 0.00 0.43 0.43 87 1013.1
20260903161248 24 116 0.0 1.6 0.00 0.43 0.43 90 1013.1
20260903160744 24 202 6.4 6.4 0.00 0.43 0.43 91 1013.2
20260903160243 23 224 1.6 3.2 0.00 0.43 0.43 92 1013.4
20260903155741 23 319 3.2 3.2 0.00 0.43 0.43 91 1013.4
20260903155237 22 203 3.2 3.2 0.00 0.43 0.43 95 1013.3
20260903154732 22 186 1.6 3.2 0.00 0.43 0.43 96 1013.8
20260903154228 22 162 0.0 1.6 0.00 0.43 0.43 95 1013.5
20260903153723 22 181 0.0 0.0 0.00 0.43 0.43 97 1013.6
20260903153219 22 196 3.2 3.2 0.00 0.43 0.43 97 1013.6
20260903152715 21 182 0.0 1.6 0.00 0.43 0.43 98 1013.6
20260903152212 21 177 0.0 1.6 0.00 0.43 0.43 99 1013.7
20260903151711 21 177 0.0 0.0 0.00 0.43 0.43 99 1013.6
20260903151206 21 178 3.2 3.2 0.00 0.43 0.43 99 1013.8
20260903150701 22 174 0.0 0.0 0.00 0.43 0.43 99 1013.9
20260903150155 21 180 1.6 1.6 0.00 0.43 0.43 98 1014.0
20260903145650 21 194 0.0 1.6 0.00 0.43 0.43 99 1013.9
20260903145145 21 210 3.2 3.2 0.00 0.43 0.43 99 1013.9
20260903144643 21 193 3.2 3.2 0.00 0.43 0.43 99 1013.8
20260903144140 21 207 3.2 3.2 0.00 0.43 0.43 99 1014.1
20260903143636 21 189 1.6 3.2 0.00 0.43 0.43 99 1013.9
20260903143131 21 177 3.2 3.2 0.00 0.43 0.43 99 1013.9
20260903142627 21 194 3.2 3.2 0.00 0.43 0.43 99 1013.8
20260903142123 21 193 3.2 3.2 0.00 0.43 0.43 99 1013.8
20260903141619 21 190 1.6 3.2 0.00 0.43 0.43 99 1013.8
20260903141114 20 185 0.0 0.0 0.00 0.43 0.43 99 1013.7
20260903140610 20 188 1.6 1.6 0.00 0.43 0.43 99 1013.8
20260903140105 20 170 1.6 1.6 0.00 0.43 0.43 99 1013.6
20260903135601 20 171 0.0 1.6 0.00 0.43 0.43 99 1013.7
20260903135101 19 171 0.0 1.6 0.00 0.43 0.43 99 1013.6
20260903134559 19 171 1.6 1.6 0.00 0.43 0.43 99 1013.4
20260903134055 19 171 0.0 1.6 0.00 0.43 0.43 99 1013.6
20260903133553 19 171 1.6 1.6 0.00 0.43 0.43 99 1013.5
20260903133049 19 170 1.6 1.6 0.00 0.43 0.43 99 1013.3
20260903132543 20 170 0.0 1.6 0.00 0.43 0.43 99 1013.2
20260903132038 19 170 0.0 1.6 0.00 0.43 0.43 99 1013.5
20260903131533 18 170 1.6 1.6 0.00 0.43 0.43 99 1013.5
20260903131032 18 170 1.6 1.6 0.00 0.43 0.43 99 1013.4
20260903130526 18 169 1.6 1.6 0.00 0.43 0.43 99 1013.6
20260903130021 18 170 1.6 1.6 0.00 0.43 0.43 99 1013.4
20260903125520 18 169 1.6 1.6 0.00 0.43 0.43 99 1013.4
20260903125015 18 169 0.0 0.0 0.00 0.43 0.43 99 1013.7
20260903124509 18 169 0.0 0.0 0.00 0.43 0.43 99 1013.5
20260903124008 18 169 0.0 0.0 0.00 0.43 0.43 99 1013.5
20260903123504 18 169 0.0 0.0 0.00 0.43 0.43 99 1013.4
20260903123002 18 169 0.0 0.0 0.00 0.43 0.43 99 1013.3
20260903122502 18 169 0.0 0.0 0.00 0.43 0.43 99 1013.3
20260903121955 18 169 0.0 0.0 0.00 0.43 0.43 99 1013.3
20260903121450 18 169 0.0 0.0 0.00 0.43 0.43 99 1013.3
20260903120947 18 169 1.6 1.6 0.00 0.43 0.43 99 1013.2
20260903120445 17 169 0.0 0.0 0.00 0.43 0.43 99 1013.1
20260903115944 17 169 0.0 0.0 0.00 0.43 0.43 99 1013.4
20260903115444 17 114 1.6 1.6 0.00 0.43 0.43 99 1013.3
20260903114939 17 114 0.0 0.0 0.00 0.43 0.43 99 1013.3
20260903114434 17 114 0.0 0.0 0.00 0.43 0.43 99 1013.6
20260903113930 17 114 0.0 0.0 0.00 0.43 0.43 99 1013.5
20260903113426 17 114 0.0 0.0 0.00 0.43 0.43 99 1013.5
20260903112921 17 114 0.0 0.0 0.00 0.43 0.43 99 1013.4
20260903112416 17 114 0.0 1.6 0.00 0.43 0.43 99 1013.7
20260903111916 17 114 0.0 0.0 0.00 0.43 0.43 99 1013.5
20260903111415 17 114 1.6 1.6 0.00 0.43 0.43 99 1013.7
20260903110911 17 114 0.0 0.0 0.00 0.43 0.43 99 1013.8
20260903110407 17 114 0.0 0.0 0.00 0.43 0.43 99 1013.8
20260903105901 17 113 0.0 0.0 0.00 0.43 0.43 99 1013.7
20260903105357 17 113 0.0 0.0 0.00 0.43 0.43 99 1014.1
20260903104856 17 113 0.0 1.6 0.00 0.43 0.43 99 1014.0
20260903104351 17 113 1.6 1.6 0.00 0.43 0.43 99 1014.0
20260903103848 17 113 0.0 0.0 0.00 0.43 0.43 99 1014.1
20260903103344 17 113 0.0 0.0 0.00 0.43 0.43 99 1014.0
20260903102839 17 113 0.0 0.0 0.00 0.43 0.43 99 1013.9
20260903102338 17 113 1.6 1.6 0.00 0.43 0.43 99 1014.1
20260903101833 17 113 0.0 0.0 0.00 0.43 0.43 99 1014.2
20260903101328 17 113 0.0 0.0 0.00 0.43 0.43 99 1013.7
20260903100824 17 113 1.6 1.6 0.00 0.43 0.43 99 1013.6
20260903100323 17 113 1.6 1.6 0.00 0.43 0.43 99 1013.5
20260903095815 17 113 1.6 1.6 0.00 0.43 0.43 99 1013.7
20260903095309 17 113 0.0 0.0 0.00 0.43 0.43 99 1014.2
20260903094805 17 113 0.0 0.0 0.00 0.43 0.43 99 1013.8
20260903094259 17 113 0.0 0.0 0.00 0.43 0.43 99 1013.9
20260903093755 17 113 0.0 0.0 0.00 0.43 0.43 99 1013.9
20260903093250 17 113 0.0 0.0 0.00 0.43 0.43 99 1013.6
20260903092750 17 113 0.0 0.0 0.00 0.43 0.43 99 1013.6
20260903092245 17 100 0.0 0.0 0.00 0.43 0.43 99 1013.8
20260903091743 17 99 0.0 0.0 0.00 0.43 0.43 99 1013.9
20260903091232 17 99 0.0 0.0 0.00 0.43 0.43 99 1013.7
20260903090727 17 99 0.0 0.0 0.00 0.43 0.43 99 1013.8
20260903090225 17 99 0.0 0.0 0.00 0.43 0.43 99 1013.7
20260903085720 17 99 0.0 0.0 0.00 0.43 0.43 99 1013.3
20260903085215 17 99 0.0 0.0 0.00 0.43 0.43 99 1013.8
20260903084713 17 99 0.0 0.0 0.00 0.43 0.43 99 1013.6
20260903084208 17 98 0.0 0.0 0.00 0.43 0.43 99 1013.3
20260903083703 17 163 0.0 0.0 0.00 0.43 0.43 99 1013.3
20260903083203 17 163 0.0 0.0 0.00 0.43 0.43 99 1013.5
20260903082657 17 163 1.6 1.6 0.00 0.43 0.43 99 1013.5
20260903082153 17 164 0.0 0.0 0.00 0.43 0.43 99 1013.5
20260903081648 17 184 0.0 0.0 0.00 0.43 0.43 99 1013.8
20260903081144 17 185 0.0 0.0 0.00 0.43 0.43 99 1013.8
20260903080640 17 185 0.0 0.0 0.00 0.43 0.43 99 1013.6
20260903080137 17 175 0.0 0.0 0.00 0.43 0.43 99 1013.6
20260903075631 17 189 0.0 0.0 0.18 0.43 0.43 99 1013.4
20260903075126 17 197 0.0 0.0 0.18 0.43 0.43 99 1013.3
20260903074625 17 182 0.0 1.6 0.18 0.43 0.43 99 1013.2
20260903074120 17 170 1.6 1.6 0.13 0.41 0.41 99 1013.2
20260903073616 17 171 0.0 0.0 0.13 0.41 0.41 99 1013.4
20260903073111 17 206 1.6 1.6 0.18 0.38 0.38 99 1013.5
20260903072607 17 181 0.0 0.0 0.18 0.38 0.38 99 1013.5
20260903072103 17 181 0.0 0.0 0.00 0.36 0.36 99 1013.8
20260903071600 17 181 0.0 0.0 0.00 0.36 0.36 99 1013.9
20260903071059 17 181 0.0 0.0 0.00 0.36 0.36 99 1014.1
20260903070554 17 208 0.0 0.0 0.00 0.36 0.36 99 1014.2
20260903070050 17 208 0.0 0.0 0.00 0.36 0.36 99 1013.8
20260903065548 17 208 1.6 1.6 0.00 0.36 0.36 99 1014.2
20260903065043 17 189 0.0 0.0 0.00 0.36 0.36 99 1014.2
20260903064543 17 189 0.0 1.6 0.00 0.36 0.36 99 1014.4
20260903064038 17 189 1.6 1.6 0.00 0.36 0.36 99 1014.2
20260903063533 17 189 0.0 0.0 0.00 0.36 0.36 99 1014.5
20260903063029 17 189 0.0 0.0 0.00 0.36 0.36 99 1014.3
20260903062524 17 189 0.0 0.0 0.00 0.36 0.36 99 1014.4
20260903062020 17 189 0.0 0.0 0.00 0.36 0.36 99 1014.3
20260903061515 17 189 0.0 1.6 0.00 0.36 0.36 99 1014.4
20260903061009 17 198 1.6 1.6 0.00 0.36 0.36 99 1014.1
20260903060503 17 198 0.0 0.0 0.13 0.36 0.36 99 1014.1
20260903060004 17 204 0.0 0.0 0.13 0.36 0.36 99 1014.3
20260903055501 17 189 0.0 1.6 0.00 0.33 0.33 99 1014.1
20260903055000 17 200 0.0 1.6 0.00 0.33 0.33 99 1014.3
20260903054455 17 200 0.0 0.0 0.00 0.33 0.33 99 1014.7
20260903053951 17 201 0.0 0.0 0.00 0.33 0.33 99 1014.9
20260903053450 17 198 0.0 1.6 0.00 0.33 0.33 99 1015.0
20260903052948 17 202 0.0 0.0 0.18 0.33 0.33 99 1015.3
20260903052443 17 196 1.6 1.6 0.18 0.33 0.33 99 1015.7
20260903051939 17 196 1.6 1.6 0.00 0.30 0.30 99 1016.0
20260903051433 17 195 0.0 0.0 0.13 0.30 0.30 99 1016.0
20260903050929 17 188 0.0 0.0 0.13 0.30 0.30 99 1015.8
20260903050428 17 188 0.0 0.0 0.18 0.28 0.28 99 1016.2
20260903045928 17 188 0.0 0.0 0.30 0.28 0.28 99 1015.8
20260903045423 17 188 1.6 1.6 0.30 0.25 0.25 99 1015.8
20260903044920 17 132 0.0 1.6 0.18 0.23 0.23 99 1015.7
20260903044415 17 106 0.0 0.0 0.13 0.20 0.20 99 1015.4
20260903043912 17 106 0.0 0.0 0.13 0.20 0.20 99 1015.5
20260903043407 17 105 1.6 1.6 0.18 0.18 0.18 99 1015.6
20260903042905 17 105 0.0 1.6 0.48 0.18 0.18 99 1015.5
20260903042401 17 119 0.0 0.0 0.48 0.15 0.15 99 1016.0
20260903041856 17 117 1.6 1.6 0.30 0.10 0.10 99 1015.6
20260903041353 17 80 0.0 0.0 0.30 0.08 0.08 99 1015.6
20260903040848 17 174 1.6 1.6 0.48 0.05 0.05 99 1016.6
20260903040347 17 138 1.6 1.6 0.43 0.03 0.03 99 1016.3
20260903035844 17 167 0.0 0.0 0.61 1.32 1.32 99 1017.0
20260903035338 17 169 0.0 0.0 0.61 1.30 1.30 99 1017.3
20260903034834 17 165 0.0 0.0 0.97 1.24 1.24 99 1017.5
20260903034329 17 165 0.0 0.0 3.66 1.19 1.19 99 1017.6
20260903033824 17 165 0.0 0.0 4.67 1.09 1.09 99 1018.0
20260903033319 17 184 0.0 1.6 2.95 0.69 0.69 99 1018.2
20260903032818 17 191 1.6 3.2 0.97 0.30 0.30 99 1018.4
20260903032315 17 121 1.6 1.6 0.30 0.20 0.20 99 1017.1
20260903031810 17 125 0.0 0.0 0.00 0.15 0.15 99 1017.1
20260903031309 17 230 0.0 0.0 0.00 0.15 0.15 99 1017.0
20260903030805 17 202 1.6 1.6 0.00 0.15 0.15 99 1016.9
20260903030301 17 177 0.0 0.0 0.00 0.15 0.15 99 1016.7
20260903025756 17 135 1.6 1.6 0.00 0.15 0.15 99 1016.8
20260903025252 17 201 0.0 0.0 0.00 0.15 0.15 99 1016.6
20260903024746 17 217 0.0 0.0 0.00 0.15 0.15 99 1016.4
20260903024245 17 304 3.2 3.2 0.00 0.15 0.15 99 1016.5
20260903023741 17 194 0.0 0.0 0.00 0.15 0.15 99 1016.4
20260903023237 17 213 0.0 0.0 0.00 0.15 0.15 99 1016.8
20260903022737 17 194 3.2 3.2 0.00 0.15 0.15 99 1016.9
20260903022236 17 184 0.0 3.2 0.00 0.15 0.15 99 1016.8
20260903021730 17 183 0.0 0.0 0.00 0.15 0.15 99 1016.8
20260903021226 17 183 0.0 1.6 0.00 0.15 0.15 99 1016.9
20260903020725 17 183 0.0 0.0 0.00 0.15 0.15 99 1016.8
20260903020220 17 182 0.0 0.0 0.00 0.15 0.15 99 1016.8
20260903015715 17 143 1.6 1.6 0.00 0.15 0.15 99 1017.1
20260903015211 17 189 1.6 1.6 0.00 0.15 0.15 99 1017.4
20260903014706 17 151 0.0 1.6 0.00 0.15 0.15 99 1017.3
20260903014200 17 200 3.2 3.2 0.00 0.15 0.15 99 1017.3
20260903013655 17 180 0.0 0.0 0.00 0.15 0.15 99 1017.3
20260903013154 17 188 1.6 1.6 0.00 0.15 0.15 99 1017.2
20260903012653 17 163 0.0 0.0 0.00 0.15 0.15 99 1017.0
20260903012153 17 180 0.0 0.0 0.00 0.15 0.15 99 1017.0
20260903011652 17 187 1.6 1.6 0.00 0.15 0.15 99 1017.0
20260903011146 17 201 1.6 1.6 0.00 0.15 0.15 99 1016.5
20260903010642 17 198 3.2 3.2 0.00 0.15 0.15 99 1016.2
20260903010140 17 208 1.6 1.6 0.00 0.15 0.15 99 1016.8
20260903005635 17 208 0.0 0.0 0.00 0.15 0.15 99 1016.9
20260903005130 17 209 0.0 0.0 0.00 0.15 0.15 99 1016.9
20260903004625 17 44 0.0 0.0 0.13 0.15 0.15 99 1016.9
20260903004120 17 45 0.0 1.6 0.13 0.15 0.15 99 1017.3
20260903003616 17 33 0.0 0.0 0.00 0.13 0.13 99 1017.2
20260903003110 17 32 1.6 1.6 0.00 0.13 0.13 99 1017.2
20260903002600 17 149 1.6 1.6 0.00 0.13 0.13 99 1017.0
20260903002054 17 148 0.0 0.0 0.00 0.13 0.13 99 1017.0
20260903001555 17 148 0.0 1.6 0.00 0.13 0.13 99 1017.2
20260903001049 17 155 1.6 1.6 0.00 0.13 0.13 99 1016.9
20260903000545 17 118 0.0 1.6 0.00 0.13 0.13 99 1016.9
20260903000043 17 118 0.0 0.0 0.00 0.13 0.13 99 1016.8
20260902235537 17 118 0.0 0.0 0.00 0.13 0.13 99 1016.8
20260902235032 17 118 0.0 1.6 0.00 0.13 0.13 99 1016.9
20260902234527 17 118 0.0 0.0 0.00 0.13 0.13 99 1016.8
20260902234025 17 118 0.0 1.6 0.00 0.13 0.13 99 1016.9
20260902233520 17 118 0.0 0.0 0.00 0.13 0.13 99 1016.7
20260902233015 17 116 1.6 1.6 0.00 0.13 0.13 99 1016.8
20260902232514 17 158 0.0 0.0 0.00 0.13 0.13 99 1016.7
20260902232009 17 163 1.6 1.6 0.00 0.13 0.13 99 1016.7
20260902231503 17 140 1.6 1.6 0.00 0.13 0.13 99 1016.9
20260902230958 17 158 0.0 0.0 0.00 0.13 0.13 99 1017.1
20260902230451 17 174 0.0 1.6 0.00 0.13 0.13 99 1017.1
20260902225945 17 174 3.2 3.2 0.00 0.13 0.13 99 1016.8
20260902225440 17 184 1.6 3.2 0.00 0.13 0.13 99 1017.0
20260902224940 17 235 3.2 4.8 0.00 0.13 0.13 99 1017.3
20260902224439 17 197 0.0 0.0 0.00 0.13 0.13 99 1017.2
20260902223936 17 158 1.6 1.6 0.00 0.13 0.13 99 1017.2
20260902223431 17 109 1.6 1.6 0.00 0.13 0.13 99 1017.3
20260902222930 17 141 0.0 1.6 0.00 0.13 0.13 99 1017.1
20260902222429 17 107 0.0 0.0 0.00 0.13 0.13 99 1017.1
20260902221929 17 162 1.6 1.6 0.00 0.13 0.13 99 1017.3
20260902221427 17 137 0.0 0.0 0.00 0.13 0.13 99 1017.1
20260902220924 17 241 0.0 0.0 0.00 0.13 0.13 99 1017.2
20260902220423 17 139 1.6 1.6 0.00 0.13 0.13 99 1017.0
20260902215919 17 60 0.0 0.0 0.00 0.13 0.13 99 1017.1
20260902215414 17 62 0.0 0.0 0.00 0.13 0.13 99 1017.3
20260902214910 17 62 0.0 1.6 0.00 0.13 0.13 99 1017.2
20260902214409 17 16 0.0 1.6 0.00 0.13 0.13 99 1017.3
20260902213903 17 98 0.0 0.0 0.00 0.13 0.13 99 1017.5
20260902213400 17 95 0.0 0.0 0.00 0.13 0.13 99 1017.1
20260902212858 17 40 0.0 0.0 0.00 0.13 0.13 99 1017.2
20260902212354 17 49 0.0 1.6 0.00 0.13 0.13 99 1017.1
20260902211851 17 92 0.0 0.0 0.00 0.13 0.13 99 1017.2
20260902211346 17 192 1.6 1.6 0.00 0.13 0.13 99 1017.0
20260902210841 17 232 0.0 1.6 0.00 0.13 0.13 99 1017.2
20260902210341 17 92 0.0 1.6 0.00 0.13 0.13 99 1017.3
20260902205839 17 100 0.0 1.6 0.00 0.13 0.13 99 1017.3
20260902205334 17 105 0.0 1.6 0.00 0.13 0.13 99 1017.3
20260902204830 17 105 1.6 1.6 0.00 0.13 0.13 99 1017.5
20260902204324 17 105 0.0 0.0 0.00 0.13 0.13 99 1017.5
20260902203820 17 95 0.0 1.6 0.00 0.13 0.13 99 1017.4
20260902203315 17 98 0.0 0.0 0.00 0.13 0.13 99 1017.7
20260902202814 17 102 0.0 0.0 0.00 0.13 0.13 99 1017.5
20260902202310 17 192 0.0 1.6 0.00 0.13 0.13 99 1017.5
20260902201807 17 199 0.0 0.0 0.00 0.13 0.13 99 1017.5
20260902201301 17 100 1.6 1.6 0.00 0.13 0.13 99 1017.5
20260902200756 17 186 0.0 0.0 0.00 0.13 0.13 99 1017.4
20260902200251 17 211 0.0 0.0 0.00 0.13 0.13 99 1017.5
20260902195746 17 76 0.0 0.0 0.00 0.13 0.13 99 1017.7
20260902195246 17 73 1.6 3.2 0.00 0.13 0.13 99 1017.5
20260902194740 17 79 0.0 0.0 0.00 0.13 0.13 99 1017.4
20260902194235 17 76 1.6 3.2 0.00 0.13 0.13 99 1017.3
20260902193731 17 90 1.6 1.6 0.00 0.13 0.13 99 1017.3
20260902193226 17 81 0.0 1.6 0.00 0.13 0.13 99 1017.4
20260902192724 17 68 0.0 1.6 0.00 0.13 0.13 99 1017.2
20260902192219 17 57 1.6 3.2 0.00 0.13 0.13 99 1017.4
20260902191718 17 88 0.0 1.6 0.00 0.13 0.13 99 1017.5
20260902191213 17 153 0.0 1.6 0.00 0.13 0.13 99 1017.6
20260902190708 17 121 1.6 3.2 0.00 0.13 0.13 99 1017.7
20260902190203 17 111 0.0 0.0 0.00 0.13 0.13 99 1017.8
20260902185659 17 107 0.0 1.6 0.00 0.13 0.13 99 1018.0
20260902185154 17 73 0.0 1.6 0.00 0.13 0.13 99 1018.1
20260902184649 17 90 1.6 1.6 0.00 0.13 0.13 99 1018.2
20260902184145 17 162 0.0 0.0 0.00 0.13 0.13 99 1018.2
20260902183641 17 168 1.6 1.6 0.00 0.13 0.13 99 1018.2
20260902183137 17 163 0.0 1.6 0.00 0.13 0.13 99 1018.5
20260902182633 17 140 0.0 1.6 0.00 0.13 0.13 99 1018.4
20260902182130 17 124 0.0 0.0 0.00 0.13 0.13 99 1018.4